Show Low, AZ

1:47 PM MST on February 25, 2018 (GMT -0700)
Show Low Municipal

Weather History for KSOW - November, 2013

Change the Weather History Date:

Sunday, November 3, 2013

  Actual Average Record
Temperature  
Mean Temperature 50 °F -  
Max Temperature 59 °F 56 °F 74 °F (1988)
Min Temperature 41 °F 35 °F 15 °F (1969)
Degree Days  
Heating Degree Days 15    
Moisture  
Dew Point 31 °F    
Average Humidity 51    
Maximum Humidity 70    
Minimum Humidity 22    
Precipitation  
Precipitation 0.00 in - - ()
Sea Level Pressure  
Sea Level Pressure 29.98 in    
Wind  
Wind Speed 17 mph (SSW)    
Max Wind Speed 33 mph    
Max Gust Speed 40 mph    
Visibility 10 miles    
Events      
Averages and records for this station are not official NWS values.
T = Trace of Precipitation, MM = Missing Value Source: NWS Daily Summary

Daily Weather History Graph

Daily Weather History Graph

Search for Another Location

Airport or City:

Trip Planner

Search our weather history database for the weather conditions in past years. The results will help you decide how hot, cold, wet, or windy it might be!

Date:

Astronomy

Nov. 03, 2013 Rise Set
Actual Time 6:42 AM MST 5:24 PM MST
Civil Twilight 6:15 AM MST 5:50 PM MST
Nautical Twilight 5:46 AM MST 6:20 PM MST
Astronomical Twilight 5:16 AM MST 6:49 PM MST
Moon 6:48 AM MST (11/3) 5:43 PM MST (11/3)
Length of Visible Light 11h 34m
Length of Day
10h 42m
New Moon, 0% of the Moon is Illuminated
Nov 3
New Moon
Nov 9
First Quarter
Nov 17
Full
Nov 25
Last Quarter
Dec 2
New

Hourly Weather History & Observations

Time (MST) Temp. Windchill Dew Point Humidity Pressure Visibility Wind Dir Wind Speed Gust Speed Precip Events Conditions
12:15 AM 50.0 °F - 12.2 °F 22% 30.08 in 10.0 mi SW 17.3 mph 20.7 mph N/A   Clear
12:35 AM 48.2 °F - 12.2 °F 24% 30.08 in 10.0 mi SSW 15.0 mph - N/A   Clear
12:55 AM 50.0 °F - 12.2 °F 22% 30.08 in 10.0 mi SSW 13.8 mph - N/A   Clear
1:15 AM 48.2 °F - 12.2 °F 24% 30.07 in 10.0 mi South 15.0 mph - N/A   Clear
1:35 AM 50.0 °F - 14.0 °F 24% 30.05 in 10.0 mi South 20.7 mph 26.5 mph N/A   Clear
1:55 AM 50.0 °F - 17.6 °F 28% 30.05 in 10.0 mi South 23.0 mph 26.5 mph N/A   Clear
2:15 AM 48.2 °F - 23.0 °F 37% 30.02 in 10.0 mi South 20.7 mph - N/A   Clear
2:35 AM 48.2 °F - 19.4 °F 32% 30.01 in 10.0 mi South 23.0 mph 31.1 mph N/A   Clear
2:55 AM 48.2 °F - 19.4 °F 32% 29.98 in 10.0 mi South 28.8 mph 36.8 mph N/A   Clear
3:15 AM 48.2 °F - 26.6 °F 43% 29.98 in 10.0 mi South 33.4 mph 40.3 mph N/A   Clear
3:35 AM 46.4 °F 37.7 °F 28.4 °F 50% 29.96 in 10.0 mi South 26.5 mph 34.5 mph N/A   Clear
3:55 AM 46.4 °F 38.1 °F 32.0 °F 57% 29.98 in 10.0 mi South 24.2 mph 35.7 mph N/A   Clear
4:15 AM 46.4 °F 39.8 °F 32.0 °F 57% 29.98 in 10.0 mi SSE 16.1 mph 24.2 mph N/A   Clear
4:35 AM 44.6 °F 39.7 °F 32.0 °F 61% 30.00 in 10.0 mi SSW 9.2 mph 19.6 mph N/A   Clear
4:55 AM 44.6 °F 39.2 °F 32.0 °F 61% 30.01 in 10.0 mi South 10.4 mph - N/A   Clear
5:15 AM 44.6 °F 40.2 °F 32.0 °F 61% 30.01 in 10.0 mi South 8.1 mph - N/A   Partly Cloudy
5:35 AM 42.8 °F 37.0 °F 32.0 °F 66% 30.00 in 10.0 mi SSW 10.4 mph - N/A   Clear
5:55 AM 42.8 °F 37.5 °F 32.0 °F 66% 30.01 in 10.0 mi SSW 9.2 mph - N/A   Clear
6:15 AM 41.0 °F 35.2 °F 32.0 °F 70% 30.01 in 10.0 mi SSW 9.2 mph - N/A   Clear
6:35 AM 41.0 °F 34.3 °F 32.0 °F 70% 30.01 in 10.0 mi South 11.5 mph - N/A   Clear
6:55 AM 42.8 °F 35.8 °F 32.0 °F 66% 30.01 in 10.0 mi South 13.8 mph - N/A   Clear
7:15 AM 44.6 °F 38.4 °F 33.8 °F 66% 30.01 in 10.0 mi SSW 12.7 mph - N/A   Clear
7:35 AM 46.4 °F 39.8 °F 35.6 °F 66% 30.02 in 10.0 mi South 16.1 mph 20.7 mph N/A   Clear
7:55 AM 46.4 °F 38.7 °F 35.6 °F 66% 30.01 in 10.0 mi South 20.7 mph 27.6 mph N/A   Clear
8:15 AM 48.2 °F - 35.6 °F 62% 30.00 in 10.0 mi South 26.5 mph - N/A   Clear
8:35 AM 50.0 °F - 35.6 °F 58% 30.00 in 10.0 mi South 19.6 mph 32.2 mph N/A   Clear
8:55 AM 50.0 °F - 35.6 °F 58% 30.01 in 10.0 mi SSW 18.4 mph 29.9 mph N/A   Clear
9:15 AM 51.8 °F - 35.6 °F 54% 30.01 in 10.0 mi SSW 20.7 mph 33.4 mph N/A   Clear
9:35 AM 53.6 °F - 35.6 °F 51% 30.01 in 10.0 mi South 21.9 mph 27.6 mph N/A   Clear
9:55 AM 53.6 °F - 35.6 °F 51% 30.01 in 10.0 mi SSW 20.7 mph 28.8 mph N/A   Clear
10:15 AM 53.6 °F - 33.8 °F 47% 30.02 in 10.0 mi SSW 13.8 mph 26.5 mph N/A   Clear
10:35 AM 55.4 °F - 32.0 °F 41% 30.02 in 10.0 mi South 18.4 mph 28.8 mph N/A   Clear
10:55 AM 55.4 °F - 32.0 °F 41% 30.01 in 10.0 mi SSW 19.6 mph 29.9 mph N/A   Clear
11:15 AM 55.4 °F - 33.8 °F 44% 30.00 in 10.0 mi SW 20.7 mph 27.6 mph N/A   Partly Cloudy
11:35 AM 57.2 °F - 33.8 °F 41% 30.00 in 10.0 mi SW 28.8 mph 33.4 mph N/A   Partly Cloudy
11:55 AM 57.2 °F - 35.6 °F 44% 29.99 in 10.0 mi SSW 23.0 mph 32.2 mph N/A   Partly Cloudy
12:15 PM 57.2 °F - 35.6 °F 44% 29.99 in 10.0 mi SW 21.9 mph 32.2 mph N/A   Partly Cloudy
12:35 PM 57.2 °F - 33.8 °F 41% 29.98 in 10.0 mi SSW 25.3 mph 31.1 mph N/A   Mostly Cloudy
12:55 PM 59.0 °F - 33.8 °F 39% 29.96 in 10.0 mi SSW 26.5 mph 32.2 mph N/A   Scattered Clouds
1:15 PM 59.0 °F - 33.8 °F 39% 29.96 in 10.0 mi SW 21.9 mph 32.2 mph N/A   Scattered Clouds
1:35 PM 57.2 °F - 32.0 °F 38% 29.95 in 10.0 mi SSW 25.3 mph 31.1 mph N/A   Mostly Cloudy
1:55 PM 57.2 °F - 32.0 °F 38% 29.95 in 10.0 mi SW 21.9 mph 29.9 mph N/A   Scattered Clouds
2:15 PM 57.2 °F - 32.0 °F 38% 29.95 in 10.0 mi WSW 21.9 mph 34.5 mph N/A   Scattered Clouds
2:35 PM 57.2 °F - 33.8 °F 41% 29.95 in 10.0 mi SSW 19.6 mph 23.0 mph N/A   Scattered Clouds
2:55 PM 57.2 °F - 33.8 °F 41% 29.94 in 10.0 mi SW 19.6 mph 28.8 mph N/A   Partly Cloudy
3:15 PM 57.2 °F - 33.8 °F 41% 29.94 in 10.0 mi SSW 24.2 mph 29.9 mph N/A   Clear
3:35 PM 57.2 °F - 33.8 °F 41% 29.93 in 10.0 mi SSW 19.6 mph 27.6 mph N/A   Clear
3:55 PM 57.2 °F - 33.8 °F 41% 29.92 in 10.0 mi SSW 24.2 mph 33.4 mph N/A   Clear
4:15 PM 55.4 °F - 32.0 °F 41% 29.92 in 10.0 mi SSW 19.6 mph 28.8 mph N/A   Clear
4:35 PM 55.4 °F - 32.0 °F 41% 29.91 in 10.0 mi SSW 19.6 mph 27.6 mph N/A   Clear
4:55 PM 53.6 °F - 32.0 °F 44% 29.92 in 10.0 mi SW 12.7 mph - N/A   Clear
5:15 PM 53.6 °F - 33.8 °F 47% 29.92 in 10.0 mi SW 19.6 mph 25.3 mph N/A   Clear
5:35 PM 51.8 °F - 33.8 °F 50% 29.93 in 10.0 mi SW 13.8 mph 20.7 mph N/A   Clear
5:55 PM 50.0 °F - 33.8 °F 54% 29.94 in 10.0 mi SW 11.5 mph - N/A   Clear
6:15 PM 50.0 °F - 33.8 °F 54% 29.95 in 10.0 mi SW 8.1 mph - N/A   Clear
6:35 PM 48.2 °F - 33.8 °F 58% 29.96 in 10.0 mi SSW 5.8 mph - N/A   Clear
6:55 PM 46.4 °F 41.9 °F 32.0 °F 57% 29.96 in 10.0 mi SSW 9.2 mph - N/A   Clear
7:15 PM 46.4 °F 41.5 °F 32.0 °F 57% 29.95 in 10.0 mi SSW 10.4 mph - N/A   Clear
7:35 PM 46.4 °F 42.4 °F 33.8 °F 62% 29.97 in 10.0 mi SSW 8.1 mph - N/A   Clear
7:55 PM 46.4 °F 42.9 °F 32.0 °F 57% 29.97 in 10.0 mi SSW 6.9 mph - N/A   Clear
8:15 PM 44.6 °F 39.7 °F 32.0 °F 61% 29.97 in 10.0 mi SSW 9.2 mph - N/A   Clear
8:35 PM 44.6 °F 38.8 °F 32.0 °F 61% 29.97 in 10.0 mi South 11.5 mph - N/A   Clear
8:55 PM 42.8 °F 39.3 °F 32.0 °F 66% 29.97 in 10.0 mi South 5.8 mph - N/A   Clear
9:15 PM 42.8 °F 38.0 °F 32.0 °F 66% 29.97 in 10.0 mi SSW 8.1 mph - N/A   Clear
9:35 PM 42.8 °F 37.0 °F 32.0 °F 66% 29.97 in 10.0 mi South 10.4 mph - N/A   Clear
9:55 PM 41.0 °F 35.8 °F 32.0 °F 70% 29.97 in 10.0 mi South 8.1 mph - N/A   Clear
10:15 PM 41.0 °F 34.7 °F 32.0 °F 70% 29.97 in 10.0 mi South 10.4 mph - N/A   Clear
10:35 PM 41.0 °F 35.8 °F 32.0 °F 70% 29.97 in 10.0 mi South 8.1 mph - N/A   Clear
10:55 PM 41.0 °F 35.2 °F 32.0 °F 70% 29.97 in 10.0 mi South 9.2 mph - N/A   Clear
11:15 PM 41.0 °F 35.8 °F 32.0 °F 70% 29.97 in 10.0 mi South 8.1 mph - N/A   Clear
11:35 PM 41.0 °F 35.2 °F 30.2 °F 65% 29.97 in 10.0 mi South 9.2 mph - N/A   Clear
11:55 PM 41.0 °F 34.7 °F 30.2 °F 65% 29.97 in 10.0 mi South 10.4 mph - N/A   Clear